[[{"header":{"parameterUnit":"m.s-1","parameterCategory":1,"la1":30.2991,"la2":30.254,"lo1":-89.0895,"lo2":-89.0444,"dy":0.0017,"dx":0.0017,"nx":28,"ny":28,"refTime":"2023-11-02T03:00:00:Z","depth":0,"parameterNumber":2,"parameterNumberName":"U-component_of_WINDS"},"data":[0,0,0,0,0,0,0,0,0,0,0,0,0,0,0,0,0,0,0,0,0,0,0,0,0,0,0,0,0,0,0,0,0,0,0,0,0,0,0,0,0,0,0,0,0,0,0,0,0,0,0,0,0,0,0,0,0,0,-3.4926,-3.4927,0,-3.5006,-3.5007,-3.5008,-3.4917,-3.4914,-3.491,-3.4907,-3.4986,-3.4991,-3.4996,0,0,0,0,0,0,0,0,0,0,0,0,0,-3.4692,-3.4697,-3.4926,-3.4927,-3.4928,-3.5006,-3.5007,-3.5008,-3.4918,-3.4913,-3.4909,-3.4905,-3.4984,-3.499,-3.4997,0,0,0,0,0,0,0,0,0,0,0,0,0,-3.4785,-3.4699,-3.4926,-3.4893,-3.489,-3.5006,-3.5007,-3.5008,-3.4918,-3.4913,-3.4908,-3.4903,-3.4982,-3.499,-3.4997,-3.5149,0,0,-3.5022,-3.5025,0,0,0,0,0,0,0,0,-3.478,-3.4794,-3.4896,-3.4895,-3.4893,-3.4946,-3.4953,-3.5055,-3.492,-3.4908,-3.4907,-3.4901,-3.4977,-3.4985,-3.5011,-3.5152,-3.5156,-3.5022,-3.5027,-3.5031,-3.5033,0,0,0,0,0,0,0,-3.4774,-3.479,-3.4958,-3.4898,-3.4896,-3.4872,-3.488,-3.4972,-3.497,-3.4908,-3.4902,-3.4913,-3.4975,-3.5003,-3.5012,-3.5157,-3.5022,-3.5029,-3.5034,-3.5037,-3.5425,-3.5431,0,0,0,0,0,0,-3.4771,-3.4785,-3.4955,-3.496,-3.4823,-3.4881,-3.4889,-3.4934,-3.4969,-3.4969,-3.4917,-3.4908,-3.4992,-3.5003,-3.5014,-3.5192,-3.5031,-3.5038,-3.5043,-3.542,-3.5427,-3.5433,0,0,0,0,0,0,-3.4767,-3.4788,-3.4952,-3.4871,-3.489,-3.489,-3.4942,-3.4939,-3.4967,-3.4975,-3.4974,-3.4947,-3.4989,-3.5003,-3.5116,-3.5194,-3.5042,-3.5049,-3.5413,-3.5422,-3.543,-3.5551,0,0,0,0,0,0,-3.4761,-3.4786,-3.4845,-3.4873,-3.4895,-3.5053,-3.4946,-3.4944,-3.4981,-3.4971,-3.5003,-3.5003,-3.4986,-3.5105,-3.5124,-3.5202,-3.5055,-3.5406,-3.5417,-3.5427,-3.554,-3.5562,-3.5582,0,0,0,0,0,-3.4752,-3.4875,-3.4848,-3.4869,-3.4968,-3.5058,-3.507,-3.5048,-3.4988,-3.5046,-3.5051,-3.5002,-3.5183,-3.5117,-3.5138,-3.522,-3.5401,-3.5414,-3.5426,-3.5531,-3.5558,-3.5581,0,0,0,0,0,0,-3.4855,-3.4878,-3.4848,-3.4984,-3.502,-3.5043,-3.5115,-3.5078,-3.5131,-3.5119,-3.5088,-3.5096,-3.5216,-3.5229,-3.5155,-3.5367,-3.5282,-3.5299,-3.5354,-3.538,-3.5401,-3.5394,-3.5061,0,0,0,0,0,-3.4894,-3.4967,-3.4982,-3.5101,-3.512,-3.5115,-3.5153,-3.5134,-3.5169,-3.5183,-3.5196,-3.5232,-3.5296,-3.5339,-3.5399,-3.5542,-3.5547,-3.5608,-3.5629,-3.5646,-3.5661,-3.5736,-3.5763,-3.5474,-3.5474,-3.5473,0,0,-3.4974,-3.4996,-3.5043,-3.5122,-3.5147,-3.5222,-3.5128,-3.5211,-3.5266,-3.5195,-3.5302,-3.5314,-3.5351,-3.5479,-3.5536,-3.5494,-3.5742,-3.5662,-3.5676,-3.5681,-3.5752,-3.5779,-3.5804,-3.5482,-3.5481,-3.5479,0,0,-3.5158,-3.5182,-3.5283,-3.5311,-3.535,-3.5346,-3.5371,-3.5399,-3.5404,-3.5511,-3.546,-3.5524,-3.5636,-3.5664,-3.5693,-3.5888,-3.5845,-3.5909,-3.6017,-3.6091,-3.6113,-3.6133,-3.6201,-3.6226,-3.5924,-3.5924,-3.5924,0,-3.5252,-3.5363,-3.5339,-3.5426,-3.5461,-3.5403,-3.5503,-3.5531,-3.5588,-3.5613,-3.5565,-3.5704,-3.5725,-3.5859,-3.5906,-3.5932,-3.5958,-3.5904,-3.6112,-3.6132,-3.615,-3.6215,-3.6241,-3.5931,-3.593,-3.593,-3.5929,0,-3.5476,-3.5554,-3.5631,-3.5688,-3.5733,-3.5826,-3.5815,-3.5863,-3.5839,-3.584,-3.5949,-3.5972,-3.6035,-3.6066,-3.6043,-3.6196,-3.6168,-3.6117,-3.603,-3.6186,-3.6246,-3.627,-3.5942,-3.5939,-3.5937,-3.5935,0,0,-3.5726,-3.577,-3.5798,-3.5823,-3.5863,-3.5922,-3.6012,-3.6075,-3.6115,-3.6157,-3.6231,-3.6327,-3.628,-3.6313,-3.6293,-3.6358,-3.6509,-3.6299,-3.6299,-3.6336,-3.6677,-3.6714,-3.6743,-3.6482,-3.6486,-3.649,-3.6673,0,-3.5909,-3.6067,-3.6048,-3.6198,-3.6269,-3.6214,-3.6293,-3.6325,-3.6328,-3.6388,-3.639,-3.6459,-3.6392,-3.6411,-3.6473,-3.6478,-3.6577,-3.6465,-3.6548,-3.6552,-3.6539,-3.6775,-3.6814,-3.6986,-3.6697,-3.6701,-3.6704,0,-3.6144,-3.6195,-3.6352,-3.6381,-3.641,-3.6481,-3.6536,-3.6595,-3.663,-3.6627,-3.6665,-3.6633,-3.6722,-3.6636,-3.6757,-3.6681,-3.6714,-3.6722,-3.6728,-3.6733,-3.6636,-3.6785,-3.7041,-3.7066,-3.6741,-3.6738,-3.6735,0,-3.6308,-3.6416,-3.6524,-3.6547,-3.6584,-3.6635,-3.6652,-3.6682,-3.6721,-3.6769,-3.6793,-3.6851,-3.6882,-3.6927,-3.6912,-3.6851,-3.7036,-3.6949,-3.7035,-3.7036,-3.7075,-3.7073,-3.7338,-3.71,-3.71,-3.7099,-3.7099,0,-3.6514,-3.6612,-3.6598,-3.6664,-3.6772,-3.6749,-3.6856,-3.6867,-3.6894,-3.696,-3.6917,-3.6979,-3.6956,-3.7017,-3.7006,-3.7108,-3.7123,-3.7122,-3.7117,-3.7125,-3.7124,-3.7144,-3.7131,-3.7106,-3.7105,-3.7103,-3.7102,0,-3.6714,-3.671,-3.6823,-3.6849,-3.6857,-3.6936,-3.6957,-3.7018,-3.7018,-3.7102,-3.7121,-3.712,-3.719,-3.718,-3.7257,-3.7249,-3.7375,-3.7357,-3.7364,-3.7359,-3.7445,-3.7436,-3.7731,-3.7767,-3.7508,-3.7511,-3.7513,0,-3.6845,-3.6919,-3.6953,-3.6995,-3.7016,-3.7084,-3.7123,-3.7103,-3.7146,-3.7192,-3.7247,-3.7313,-3.7365,-3.7479,-3.7484,-3.7543,-3.7524,-3.7624,-3.7533,-3.7538,-3.7523,-3.7518,-3.7525,-3.7641,-3.7644,-3.7646,-3.7648,0,-3.7076,-3.707,-3.7129,-3.7188,-3.7237,-3.7281,-3.7322,-3.7358,-3.7342,-3.7392,-3.7463,-3.7503,-3.7582,-3.7648,-3.7703,-3.7719,-3.7681,-3.7677,-3.77,-3.7707,-3.7707,-3.7706,-3.741,-3.767,-3.7668,-3.7666,-3.7665,-3.7664,-3.7245,-3.7308,-3.7341,-3.7408,-3.7437,-3.7476,-3.7534,-3.7542,-3.7601,-3.7665,-3.765,-3.773,-3.7762,-3.7832,-3.7854,-3.7916,-3.7879,-3.7912,-3.792,-3.7928,-3.7938,-3.77,-3.7926,-3.7925,-3.7925,-3.7924,-3.7924,0,-3.7472,-3.7491,-3.7553,-3.7611,-3.7664,-3.7626,-3.7668,-3.7714,-3.7785,-3.7819,-3.7871,-3.7952,-3.8016,-3.8027,-3.8087,-3.8134,-3.8117,-3.815,-3.8145,-3.8149,-3.7968,-3.7942,-3.8162,-3.8162,-3.8162,-3.8161,-3.8161,-3.8161,-3.7596,-3.7701,-3.7699,-3.7816,-3.7834,-3.7913,-3.794,-3.7975,-3.8002,-3.8095,-3.8148,-3.8155,-3.818,-3.8241,-3.8297,-3.8298,-3.8321,-3.836,-3.8355,-3.8185,-3.8162,-3.8139,-3.8114,-3.8366,-3.8366,-3.8529,-3.8531,-3.8532]},{"header":{"parameterUnit":"m.s-1","parameterCategory":1,"la1":30.2991,"la2":30.254,"lo1":-89.0895,"lo2":-89.0444,"dy":0.0017,"dx":0.0017,"nx":28,"ny":28,"refTime":"2023-11-02T03:00:00:Z","depth":0,"parameterNumber":3,"parameterNumberName":"V-component_of_WINDS"},"data":[0,0,0,0,0,0,0,0,0,0,0,0,0,0,0,0,0,0,0,0,0,0,0,0,0,0,0,0,0,0,0,0,0,0,0,0,0,0,0,0,0,0,0,0,0,0,0,0,0,0,0,0,0,0,0,0,0,0,-3.8934,-3.8934,0,-3.8953,-3.8953,-3.8953,-3.8923,-3.8922,-3.8921,-3.892,-3.8938,-3.8939,-3.8941,0,0,0,0,0,0,0,0,0,0,0,0,0,-3.8868,-3.8869,-3.8934,-3.8934,-3.8934,-3.8953,-3.8953,-3.8953,-3.8924,-3.8922,-3.8921,-3.892,-3.8937,-3.8939,-3.8941,0,0,0,0,0,0,0,0,0,0,0,0,0,-3.8892,-3.887,-3.8934,-3.8922,-3.8921,-3.8953,-3.8953,-3.8953,-3.8924,-3.8922,-3.8921,-3.8919,-3.8937,-3.8939,-3.8941,-3.8985,0,0,-3.8947,-3.8948,0,0,0,0,0,0,0,0,-3.8891,-3.8895,-3.8923,-3.8923,-3.8922,-3.8934,-3.8936,-3.8964,-3.8924,-3.8923,-3.892,-3.8919,-3.8938,-3.894,-3.8946,-3.8985,-3.8986,-3.8948,-3.8949,-3.895,-3.895,0,0,0,0,0,0,0,-3.8889,-3.8894,-3.8941,-3.8924,-3.8923,-3.8914,-3.8916,-3.8941,-3.8938,-3.8923,-3.8921,-3.8923,-3.8937,-3.8945,-3.8947,-3.8986,-3.8948,-3.8949,-3.8951,-3.8952,-3.9057,-3.9059,0,0,0,0,0,0,-3.889,-3.8893,-3.8941,-3.8942,-3.8902,-3.8916,-3.8918,-3.8932,-3.8938,-3.8938,-3.8925,-3.8922,-3.8942,-3.8944,-3.8947,-3.8995,-3.895,-3.8952,-3.8953,-3.9056,-3.9058,-3.9059,0,0,0,0,0,0,-3.8888,-3.8894,-3.894,-3.8917,-3.8922,-3.8919,-3.8934,-3.8933,-3.894,-3.894,-3.8939,-3.8933,-3.8941,-3.8944,-3.8975,-3.8996,-3.8953,-3.8955,-3.9054,-3.9056,-3.9058,-3.9094,0,0,0,0,0,0,-3.8887,-3.8894,-3.8912,-3.8917,-3.8923,-3.8968,-3.8936,-3.8934,-3.8944,-3.8941,-3.8947,-3.8947,-3.894,-3.8972,-3.8977,-3.8998,-3.8956,-3.9052,-3.9055,-3.9058,-3.9091,-3.9098,-3.9103,0,0,0,0,0,-3.8884,-3.8922,-3.8913,-3.8919,-3.8946,-3.897,-3.8973,-3.8965,-3.8946,-3.8963,-3.8962,-3.8947,-3.8993,-3.8975,-3.8981,-3.9003,-3.9051,-3.9054,-3.9058,-3.9089,-3.9096,-3.9103,0,0,0,0,0,0,-3.8919,-3.8922,-3.8913,-3.8953,-3.8961,-3.8965,-3.8986,-3.8974,-3.8987,-3.8983,-3.8971,-3.8973,-3.9005,-3.9007,-3.8987,-3.9043,-3.9018,-3.9023,-3.904,-3.9048,-3.9053,-3.9051,-3.8958,0,0,0,0,0,-3.8932,-3.8952,-3.8953,-3.8989,-3.8994,-3.8989,-3.8999,-3.8992,-3.9,-3.9003,-3.9004,-3.9011,-3.9027,-3.9038,-3.9053,-3.9092,-3.9091,-3.9109,-3.9115,-3.912,-3.9124,-3.9141,-3.9148,-3.9071,-3.9071,-3.9071,0,0,-3.8958,-3.8962,-3.8976,-3.8996,-3.9001,-3.9021,-3.8992,-3.9015,-3.9029,-3.9006,-3.9034,-3.9035,-3.9042,-3.9076,-3.9091,-3.9079,-3.9145,-3.9125,-3.9128,-3.9129,-3.9145,-3.9152,-3.9159,-3.9073,-3.9073,-3.9072,0,0,-3.9014,-3.9021,-3.9049,-3.9055,-3.9063,-3.9059,-3.9066,-3.907,-3.907,-3.9098,-3.908,-3.9096,-3.9124,-3.9129,-3.9135,-3.9189,-3.9174,-3.9194,-3.9225,-3.9241,-3.9247,-3.9253,-3.9269,-3.9275,-3.9198,-3.9199,-3.9199,0,-3.9045,-3.9075,-3.9065,-3.9088,-3.9096,-3.9076,-3.9103,-3.9109,-3.9121,-3.9126,-3.9113,-3.9145,-3.9149,-3.9182,-3.9195,-3.9202,-3.9207,-3.9193,-3.9247,-3.9253,-3.9257,-3.9273,-3.9279,-3.9201,-3.92,-3.92,-3.92,0,-3.911,-3.9131,-3.9152,-3.9164,-3.9175,-3.92,-3.9192,-3.9204,-3.9194,-3.9191,-3.9218,-3.9222,-3.9235,-3.9242,-3.9235,-3.9273,-3.9265,-3.925,-3.9224,-3.9267,-3.9281,-3.9287,-3.9204,-3.9203,-3.9202,-3.9202,0,0,-3.919,-3.9194,-3.9202,-3.9205,-3.9211,-3.9226,-3.9249,-3.9262,-3.927,-3.9279,-3.9296,-3.9319,-3.9304,-3.931,-3.9302,-3.9317,-3.9356,-3.93,-3.93,-3.9307,-3.9394,-3.9404,-3.9411,-3.9347,-3.9348,-3.9349,-3.9393,0,-3.9244,-3.9283,-3.9274,-3.9312,-3.9328,-3.9308,-3.9327,-3.9332,-3.9329,-3.9342,-3.9338,-3.9354,-3.9334,-3.9338,-3.9352,-3.9348,-3.9373,-3.9345,-3.9359,-3.936,-3.9356,-3.9419,-3.943,-3.9472,-3.9399,-3.94,-3.94,0,-3.9312,-3.9322,-3.9361,-3.9361,-3.9368,-3.9385,-3.9394,-3.9407,-3.9411,-3.9408,-3.9414,-3.9402,-3.9421,-3.9397,-3.9422,-3.9404,-3.9409,-3.9408,-3.9409,-3.9409,-3.9381,-3.9417,-3.9485,-3.9491,-3.9409,-3.9409,-3.9408,0,-3.9362,-3.9386,-3.9411,-3.9415,-3.9416,-3.9428,-3.9429,-3.9432,-3.9439,-3.9446,-3.945,-3.946,-3.9465,-3.9472,-3.9462,-3.9446,-3.9488,-3.9464,-3.9483,-3.9483,-3.9492,-3.9491,-3.9559,-3.9499,-3.9499,-3.9499,-3.9499,0,-3.9422,-3.9446,-3.9433,-3.9449,-3.9474,-3.9462,-3.9487,-3.9486,-3.9487,-3.95,-3.9484,-3.9497,-3.9484,-3.9495,-3.9487,-3.9507,-3.951,-3.9506,-3.9503,-3.9506,-3.9506,-3.9508,-3.9504,-3.9501,-3.95,-3.95,-3.95,0,-3.9482,-3.9475,-3.9501,-3.9499,-3.9499,-3.9517,-3.9515,-3.9528,-3.9523,-3.954,-3.9543,-3.9535,-3.9547,-3.9538,-3.955,-3.9544,-3.957,-3.9564,-3.9568,-3.9566,-3.9585,-3.9582,-3.9654,-3.9661,-3.96,-3.96,-3.9601,0,-3.952,-3.9537,-3.9536,-3.9544,-3.9546,-3.9559,-3.9565,-3.9553,-3.956,-3.9564,-3.9576,-3.9586,-3.9593,-3.9612,-3.9606,-3.9614,-3.9607,-3.9631,-3.9608,-3.9609,-3.9604,-3.9602,-3.9602,-3.9636,-3.9636,-3.9637,-3.9638,0,-3.9586,-3.958,-3.959,-3.9598,-3.9606,-3.9612,-3.9616,-3.9623,-3.9611,-3.9619,-3.963,-3.9636,-3.9646,-3.9655,-3.9661,-3.966,-3.9646,-3.9645,-3.9649,-3.9652,-3.9652,-3.9649,-3.9578,-3.9643,-3.9643,-3.9642,-3.9642,-3.9642,-3.9634,-3.9647,-3.9647,-3.9658,-3.9659,-3.9663,-3.9674,-3.967,-3.9679,-3.9686,-3.9679,-3.9691,-3.9691,-3.9697,-3.9698,-3.9706,-3.9696,-3.9703,-3.9704,-3.9706,-3.9707,-3.9652,-3.9708,-3.9707,-3.9707,-3.9707,-3.9707,0,-3.9696,-3.9695,-3.9705,-3.971,-3.9718,-3.9704,-3.9707,-3.9714,-3.9725,-3.9726,-3.9733,-3.9744,-3.9752,-3.9746,-3.9752,-3.976,-3.9753,-3.9762,-3.976,-3.9759,-3.9718,-3.9712,-3.9767,-3.9767,-3.9767,-3.9767,-3.9767,-3.9767,-3.9729,-3.975,-3.9744,-3.9764,-3.9762,-3.9774,-3.9776,-3.9778,-3.9779,-3.9792,-3.9798,-3.9794,-3.9792,-3.9797,-3.9803,-3.98,-3.9802,-3.9812,-3.9808,-3.9769,-3.9763,-3.9757,-3.9751,-3.9814,-3.9814,-3.9848,-3.9849,-3.9849]}]]